Previsão horária em Celbowo

Hoje, 3 Agosto, Terça-feira

Tempo Temperatura Precipitação Vento Pressão Humidade
00:00 +14°C° 0.1 mm 7 m/s 753 mmHg 83%
01:00 +14°C° 0 mm 7 m/s 753 mmHg 84%
02:00 +14°C° 0.1 mm 7 m/s 754 mmHg 86%
03:00 +13°C° 0.1 mm 6 m/s 754 mmHg 87%
04:00 +13°C° 0.1 mm 6 m/s 754 mmHg 88%
05:00 +14°C° 0 mm 6 m/s 754 mmHg 82%
06:00 +16°C° 0 mm 6 m/s 755 mmHg 76%
07:00 +17°C° 0 mm 5 m/s 755 mmHg 69%
08:00 +19°C° 0 mm 5 m/s 755 mmHg 62%
09:00 +20°C° 0 mm 4 m/s 756 mmHg 55%
10:00 +21°C° 0 mm 3 m/s 756 mmHg 48%
11:00 +21°C° 0.1 mm 3 m/s 756 mmHg 51%
12:00 +20°C° 0.1 mm 3 m/s 756 mmHg 54%
13:00 +20°C° 0.1 mm 3 m/s 756 mmHg 56%
14:00 +19°C° 0.1 mm 2 m/s 756 mmHg 58%
15:00 +19°C° 0.1 mm 2 m/s 756 mmHg 60%
16:00 +18°C° 0.1 mm 2 m/s 756 mmHg 61%
17:00 +19°C° 0 mm 1 m/s 756 mmHg 65%
18:00 +18°C° 0 mm 1 m/s 756 mmHg 69%
19:00 +18°C° 0 mm 1 m/s 756 mmHg 72%
20:00 +16°C° 0 mm 1 m/s 757 mmHg 76%
21:00 +15°C° 0 mm 1 m/s 757 mmHg 79%
22:00 +14°C° 0 mm 1 m/s 757 mmHg 82%
23:00 +14°C° 0 mm 1 m/s 757 mmHg 83%

Amanhã, 4 Agosto, Quarta-feira

Tempo Temperatura Precipitação Vento Pressão Humidade
00:00 +13°C° 0 mm 1 m/s 757 mmHg 84%
01:00 +13°C° 0 mm 1 m/s 757 mmHg 85%
02:00 +13°C° 0 mm 1 m/s 757 mmHg 85%
03:00 +13°C° 0 mm 1 m/s 757 mmHg 85%
04:00 +13°C° 0 mm 1 m/s 757 mmHg 86%
05:00 +15°C° 0 mm 1 m/s 757 mmHg 80%
06:00 +16°C° 0 mm 1 m/s 757 mmHg 74%
07:00 +19°C° 0 mm 1 m/s 758 mmHg 68%
08:00 +20°C° 0 mm 1 m/s 758 mmHg 62%
09:00 +21°C° 0 mm 1 m/s 758 mmHg 56%
10:00 +23°C° 0 mm 1 m/s 758 mmHg 51%
11:00 +23°C° 0 mm 2 m/s 758 mmHg 50%
12:00 +23°C° 0 mm 2 m/s 758 mmHg 50%
13:00 +22°C° 0 mm 3 m/s 757 mmHg 49%
14:00 +22°C° 0 mm 3 m/s 757 mmHg 51%
15:00 +21°C° 0 mm 3 m/s 757 mmHg 52%
16:00 +21°C° 0 mm 3 m/s 757 mmHg 54%
17:00 +20°C° 0 mm 3 m/s 757 mmHg 59%
18:00 +19°C° 0 mm 2 m/s 757 mmHg 64%
19:00 +18°C° 0 mm 2 m/s 757 mmHg 70%
20:00 +17°C° 0 mm 2 m/s 757 mmHg 73%
21:00 +16°C° 0 mm 2 m/s 757 mmHg 77%
22:00 +15°C° 0 mm 2 m/s 757 mmHg 80%
23:00 +15°C° 0 mm 2 m/s 757 mmHg 81%

Depois de amanhã, 5 Agosto, Quinta-feira

Tempo Temperatura Precipitação Vento Pressão Humidade
00:00 +15°C° 0 mm 2 m/s 757 mmHg 82%
01:00 +15°C° 0 mm 2 m/s 757 mmHg 83%
02:00 +15°C° 0 mm 2 m/s 757 mmHg 84%
03:00 +14°C° 0 mm 2 m/s 757 mmHg 85%
04:00 +14°C° 0 mm 2 m/s 757 mmHg 86%
05:00 +16°C° 0 mm 3 m/s 757 mmHg 79%
06:00 +18°C° 0 mm 3 m/s 757 mmHg 73%
07:00 +19°C° 0 mm 3 m/s 757 mmHg 66%
08:00 +20°C° 0 mm 3 m/s 757 mmHg 61%
09:00 +21°C° 0 mm 3 m/s 757 mmHg 57%
10:00 +22°C° 0 mm 4 m/s 756 mmHg 52%
11:00 +22°C° 0 mm 4 m/s 756 mmHg 51%
12:00 +23°C° 0 mm 4 m/s 756 mmHg 50%
13:00 +23°C° 0 mm 5 m/s 756 mmHg 49%
14:00 +23°C° 0 mm 5 m/s 756 mmHg 52%
15:00 +22°C° 0 mm 5 m/s 756 mmHg 54%
16:00 +22°C° 0 mm 5 m/s 755 mmHg 56%
17:00 +21°C° 0 mm 5 m/s 755 mmHg 62%
18:00 +20°C° 0 mm 5 m/s 755 mmHg 68%
19:00 +19°C° 0 mm 5 m/s 755 mmHg 75%
20:00 +17°C° 0.1 mm 5 m/s 754 mmHg 77%
21:00 +17°C° 0.1 mm 5 m/s 754 mmHg 80%
22:00 +16°C° 0.1 mm 5 m/s 754 mmHg 83%
23:00 +17°C° 0.1 mm 4 m/s 754 mmHg 83%

6 Agosto, Sexta-feira

Tempo Temperatura Precipitação Vento Pressão Humidade
00:00 +17°C° 0.1 mm 4 m/s 753 mmHg 83%
01:00 +17°C° 0.1 mm 3 m/s 753 mmHg 83%
02:00 +17°C° 0.1 mm 4 m/s 753 mmHg 85%
03:00 +15°C° 0.1 mm 4 m/s 753 mmHg 87%
04:00 +15°C° 0.1 mm 5 m/s 753 mmHg 89%
05:00 +16°C° 0 mm 5 m/s 753 mmHg 81%
06:00 +19°C° 0 mm 6 m/s 753 mmHg 74%
07:00 +20°C° 0 mm 6 m/s 753 mmHg 66%
08:00 +20°C° 0 mm 6 m/s 753 mmHg 62%
09:00 +21°C° 0 mm 7 m/s 753 mmHg 59%
10:00 +22°C° 0 mm 7 m/s 753 mmHg 55%
11:00 +22°C° 0 mm 7 m/s 753 mmHg 53%
12:00 +22°C° 0 mm 7 m/s 753 mmHg 52%
13:00 +23°C° 0 mm 6 m/s 753 mmHg 50%
14:00 +23°C° 0 mm 7 m/s 752 mmHg 50%
15:00 +22°C° 0 mm 7 m/s 752 mmHg 51%
16:00 +22°C° 0 mm 7 m/s 752 mmHg 51%
17:00 +21°C° 0 mm 7 m/s 752 mmHg 60%
18:00 +20°C° 0 mm 6 m/s 752 mmHg 68%
19:00 +19°C° 0 mm 6 m/s 752 mmHg 76%
20:00 +19°C° 0 mm 5 m/s 752 mmHg 81%
21:00 +17°C° 0 mm 5 m/s 752 mmHg 85%
22:00 +17°C° 0 mm 4 m/s 752 mmHg 90%
23:00 +17°C° 0 mm 3 m/s 752 mmHg 90%

7 Agosto, Sábado

Tempo Temperatura Precipitação Vento Pressão Humidade
00:00 +17°C° 0 mm 2 m/s 752 mmHg 90%
01:00 +17°C° 0 mm 2 m/s 752 mmHg 90%
02:00 +17°C° 0 mm 2 m/s 752 mmHg 90%
03:00 +17°C° 0 mm 3 m/s 752 mmHg 90%
04:00 +16°C° 0 mm 3 m/s 752 mmHg 90%
05:00 +18°C° 0 mm 3 m/s 752 mmHg 82%
06:00 +19°C° 0 mm 3 m/s 752 mmHg 74%
07:00 +20°C° 0 mm 3 m/s 752 mmHg 67%
08:00 +22°C° 0 mm 3 m/s 753 mmHg 60%
09:00 +23°C° 0 mm 4 m/s 753 mmHg 53%
10:00 +25°C° 0 mm 4 m/s 753 mmHg 46%
11:00 +25°C° 0 mm 4 m/s 753 mmHg 44%
12:00 +26°C° 0 mm 4 m/s 753 mmHg 42%
13:00 +26°C° 0 mm 3 m/s 753 mmHg 40%
14:00 +26°C° 0 mm 4 m/s 753 mmHg 42%
15:00 +25°C° 0 mm 4 m/s 753 mmHg 44%
16:00 +25°C° 0 mm 4 m/s 753 mmHg 46%
17:00 +24°C° 0 mm 3 m/s 753 mmHg 53%
18:00 +21°C° 0 mm 3 m/s 753 mmHg 60%
19:00 +20°C° 0 mm 2 m/s 754 mmHg 66%
20:00 +19°C° 0 mm 2 m/s 754 mmHg 70%
21:00 +19°C° 0 mm 2 m/s 754 mmHg 73%
22:00 +18°C° 0 mm 3 m/s 754 mmHg 76%
23:00 +18°C° 0 mm 3 m/s 754 mmHg 76%

8 Agosto, Domingo

Tempo Temperatura Precipitação Vento Pressão Humidade
00:00 +17°C° 0 mm 3 m/s 754 mmHg 77%
01:00 +17°C° 0 mm 3 m/s 754 mmHg 78%
02:00 +17°C° 0 mm 3 m/s 754 mmHg 80%
03:00 +17°C° 0 mm 3 m/s 754 mmHg 82%
04:00 +16°C° 0 mm 3 m/s 754 mmHg 84%
05:00 +18°C° 0 mm 3 m/s 755 mmHg 76%
06:00 +20°C° 0 mm 3 m/s 755 mmHg 68%
07:00 +23°C° 0 mm 2 m/s 755 mmHg 59%
08:00 +24°C° 0 mm 3 m/s 755 mmHg 56%
09:00 +25°C° 0 mm 3 m/s 755 mmHg 53%
10:00 +26°C° 0 mm 3 m/s 755 mmHg 49%
11:00 +25°C° 0.1 mm 4 m/s 756 mmHg 54%
12:00 +23°C° 0.1 mm 4 m/s 756 mmHg 58%
13:00 +22°C° 0.1 mm 5 m/s 756 mmHg 62%
14:00 +22°C° 0.2 mm 5 m/s 756 mmHg 64%
15:00 +22°C° 0.2 mm 4 m/s 757 mmHg 67%
16:00 +22°C° 0.2 mm 3 m/s 757 mmHg 69%
17:00 +21°C° 0.6 mm 3 m/s 757 mmHg 75%
18:00 +20°C° 0.6 mm 3 m/s 757 mmHg 80%
19:00 +19°C° 0.6 mm 3 m/s 758 mmHg 86%
20:00 +18°C° 0 mm 3 m/s 758 mmHg 86%
21:00 +18°C° 0 mm 2 m/s 758 mmHg 87%
22:00 +17°C° 0 mm 2 m/s 759 mmHg 87%
23:00 +17°C° 0 mm 3 m/s 759 mmHg 88%
Mostrar mais

Necessitamos do seu Consentimento

A Meteoprog e os seus Fornecedores de Serviços podem armazenar e aceder a dados pessoais como cookies, identificadores do dispositivo ou outras tecnologias semelhantes existentes no seu dispositivo e processar estes dados para personalizar conteúdos e anúncios, assim como funcionalidades nas redes sociais e análise de tráfego.

  • Armazenar e/ou aceder a informações no seu dispositivo

    Os cookies, identificadores do dispositivo ou outras informações podem ser armazenados ou acedidos no seu dispositivo, para os fins acima indicados.

  • Anúncios e conteúdos personalizados, medição de anúncios e conteúdos, dados sobre o público-alvo e desenvolvimento de produtos

    Os anúncios e os conteúdos podem ser personalizados com base num perfil. Podem ser adicionados dados adicionais para uma maior personalização dos anúncios e dos conteúdos. A eficácia dos anúncios e dos conteúdos pode ser medida. Podem ser obtidas informações sobre o público que visualizou os anúncios e os conteúdos. Estes dados podem ser usados para desenvolver ou melhorar sistemas, softwares ou a experiência do utilizador.

Ao clicar em "Eu concordo”, permitirá o uso de cookies, identificadores do dispositivo e web beacons mencionados ou outras tecnologias semelhantes. As configurações do navegador do seu dispositivo podem ser alteradas.

Para certos fins, podem ser invocados interesses legítimos ao invés de consentimento. Pode ler mais informação sobre este assunto na nossa Política de Privacidade e Cookies.